Year,Month,Day,Hour,Minute,Value (Times are PST for temperature in C)
2016,06,16,00,00,9.20
2016,06,16,00,01,9.20
2016,06,16,00,02,9.20
2016,06,16,00,03,9.20
2016,06,16,00,04,9.20
2016,06,16,00,05,9.10
2016,06,16,00,06,9.10
2016,06,16,00,07,9.10
2016,06,16,00,08,9.10
2016,06,16,00,09,9.10
2016,06,16,00,10,9.10
2016,06,16,00,11,9.10
2016,06,16,00,12,9.10
2016,06,16,00,13,9.10
2016,06,16,00,14,9.10
2016,06,16,00,15,9.00
2016,06,16,00,16,9.00
2016,06,16,00,17,9.00
2016,06,16,00,18,9.00
2016,06,16,00,19,9.00
2016,06,16,00,20,9.00
2016,06,16,00,21,9.00
2016,06,16,00,22,9.00
2016,06,16,00,23,9.00
2016,06,16,00,24,9.00
2016,06,16,00,25,9.00
2016,06,16,00,26,9.00
2016,06,16,00,27,9.00
2016,06,16,00,28,9.00
2016,06,16,00,29,9.00
2016,06,16,00,30,9.00
2016,06,16,00,31,9.00
2016,06,16,00,32,8.90
2016,06,16,00,33,8.90
2016,06,16,00,34,8.90
2016,06,16,00,35,8.90
2016,06,16,00,36,8.90
2016,06,16,00,37,8.90
2016,06,16,00,38,8.90
2016,06,16,00,39,8.90
2016,06,16,00,40,8.90
2016,06,16,00,41,8.90
2016,06,16,00,42,8.90
2016,06,16,00,43,8.90
2016,06,16,00,44,9.00
2016,06,16,00,45,9.00
2016,06,16,00,46,9.00
2016,06,16,00,47,9.00
2016,06,16,00,48,9.00
2016,06,16,00,49,9.10
2016,06,16,00,50,9.10
2016,06,16,00,51,9.10
2016,06,16,00,52,9.10
2016,06,16,00,53,9.10
2016,06,16,00,54,9.10
2016,06,16,00,55,9.10
2016,06,16,00,56,9.10
2016,06,16,00,57,9.10
2016,06,16,00,58,9.10
2016,06,16,00,59,9.10
2016,06,16,01,00,9.10
2016,06,16,01,01,9.10
2016,06,16,01,02,9.00
2016,06,16,01,03,9.00
2016,06,16,01,04,9.00
2016,06,16,01,05,9.00
2016,06,16,01,06,9.00
2016,06,16,01,07,9.00
2016,06,16,01,08,9.00
2016,06,16,01,09,8.90
2016,06,16,01,10,8.90
2016,06,16,01,11,8.90
2016,06,16,01,12,8.90
2016,06,16,01,13,8.90
2016,06,16,01,14,8.90
2016,06,16,01,15,8.90
2016,06,16,01,16,8.90
2016,06,16,01,17,8.90
2016,06,16,01,18,8.90
2016,06,16,01,19,8.90
2016,06,16,01,20,8.90
2016,06,16,01,21,8.90
2016,06,16,01,22,8.80
2016,06,16,01,23,8.80
2016,06,16,01,24,8.80
2016,06,16,01,25,8.80
2016,06,16,01,26,8.80
2016,06,16,01,27,8.80
2016,06,16,01,28,8.80
2016,06,16,01,29,8.80
2016,06,16,01,30,8.80
2016,06,16,01,31,8.80
2016,06,16,01,32,8.80
2016,06,16,01,33,8.80
2016,06,16,01,34,8.80
2016,06,16,01,35,8.80
2016,06,16,01,36,8.80
2016,06,16,01,37,8.80
2016,06,16,01,38,8.80
2016,06,16,01,39,8.80
2016,06,16,01,40,8.80
2016,06,16,01,41,8.80
2016,06,16,01,42,8.80
2016,06,16,01,43,8.80
2016,06,16,01,44,8.70
2016,06,16,01,45,8.70
2016,06,16,01,46,8.70
2016,06,16,01,47,8.70
2016,06,16,01,48,8.70
2016,06,16,01,49,8.70
2016,06,16,01,50,8.70
2016,06,16,01,51,8.70
2016,06,16,01,52,8.70
2016,06,16,01,53,8.70
2016,06,16,01,54,8.70
2016,06,16,01,55,8.70
2016,06,16,01,56,8.70
2016,06,16,01,57,8.60
2016,06,16,01,58,8.60
2016,06,16,01,59,8.60
2016,06,16,02,00,8.60
2016,06,16,02,01,8.60
2016,06,16,02,02,8.60
2016,06,16,02,03,8.60
2016,06,16,02,04,8.50
2016,06,16,02,05,8.50
2016,06,16,02,06,8.50
2016,06,16,02,07,8.50
2016,06,16,02,08,8.40
2016,06,16,02,09,8.40
2016,06,16,02,10,8.40
2016,06,16,02,11,8.40
2016,06,16,02,12,8.40
2016,06,16,02,13,8.40
2016,06,16,02,14,8.40
2016,06,16,02,15,8.40
2016,06,16,02,16,8.40
2016,06,16,02,17,8.40
2016,06,16,02,18,8.30
2016,06,16,02,19,8.30
2016,06,16,02,20,8.30
2016,06,16,02,21,8.30
2016,06,16,02,22,8.30
2016,06,16,02,23,8.30
2016,06,16,02,24,8.20
2016,06,16,02,25,8.20
2016,06,16,02,26,8.20
2016,06,16,02,27,8.20
2016,06,16,02,28,8.20
2016,06,16,02,29,8.20
2016,06,16,02,30,8.20
2016,06,16,02,31,8.20
2016,06,16,02,32,8.20
2016,06,16,02,33,8.10
2016,06,16,02,34,8.10
2016,06,16,02,35,8.10
2016,06,16,02,36,8.10
2016,06,16,02,37,8.10
2016,06,16,02,38,8.10
2016,06,16,02,39,8.10
2016,06,16,02,40,8.10
2016,06,16,02,41,8.00
2016,06,16,02,42,8.00
2016,06,16,02,43,8.00
2016,06,16,02,44,8.00
2016,06,16,02,45,8.00
2016,06,16,02,46,8.00
2016,06,16,02,47,8.00
2016,06,16,02,48,8.00
2016,06,16,02,49,8.00
2016,06,16,02,50,8.00
2016,06,16,02,51,7.90
2016,06,16,02,52,7.90
2016,06,16,02,53,7.90
2016,06,16,02,54,7.90
2016,06,16,02,55,8.00
2016,06,16,02,56,8.00
2016,06,16,02,57,7.90
2016,06,16,02,58,8.00
2016,06,16,02,59,8.00
2016,06,16,03,00,8.00
2016,06,16,03,01,7.90
2016,06,16,03,02,7.90
2016,06,16,03,03,7.90
2016,06,16,03,04,7.90
2016,06,16,03,05,7.90
2016,06,16,03,06,7.90
2016,06,16,03,07,7.90
2016,06,16,03,08,7.90
2016,06,16,03,09,7.90
2016,06,16,03,10,7.90
2016,06,16,03,11,7.90
2016,06,16,03,12,7.90
2016,06,16,03,13,7.90
2016,06,16,03,14,7.90
2016,06,16,03,15,7.90
2016,06,16,03,16,7.90
2016,06,16,03,17,7.90
2016,06,16,03,18,7.90
2016,06,16,03,19,7.80
2016,06,16,03,20,7.80
2016,06,16,03,21,7.80
2016,06,16,03,22,7.80
2016,06,16,03,23,7.80
2016,06,16,03,24,7.80
2016,06,16,03,25,7.80
2016,06,16,03,26,7.80
2016,06,16,03,27,7.80
2016,06,16,03,28,7.80
2016,06,16,03,29,7.80
2016,06,16,03,30,7.80
2016,06,16,03,31,7.80
2016,06,16,03,32,7.90
2016,06,16,03,33,7.90
2016,06,16,03,34,7.90
2016,06,16,03,35,7.90
2016,06,16,03,36,7.90
2016,06,16,03,37,7.90
2016,06,16,03,38,7.90
2016,06,16,03,39,7.90
2016,06,16,03,40,7.90
2016,06,16,03,41,7.90
2016,06,16,03,42,7.90
2016,06,16,03,43,7.90
2016,06,16,03,44,7.90
2016,06,16,03,45,7.90
2016,06,16,03,46,7.90
2016,06,16,03,47,7.90
2016,06,16,03,48,7.80
2016,06,16,03,49,7.80
2016,06,16,03,50,7.80
2016,06,16,03,51,7.80
2016,06,16,03,52,7.80
2016,06,16,03,53,7.80
2016,06,16,03,54,7.80
2016,06,16,03,55,7.80
2016,06,16,03,56,7.80
2016,06,16,03,57,7.80
2016,06,16,03,58,7.80
2016,06,16,03,59,7.80
2016,06,16,04,00,7.80
2016,06,16,04,01,7.80
2016,06,16,04,02,7.80
2016,06,16,04,03,7.80
2016,06,16,04,05,7.80
2016,06,16,04,06,7.80
2016,06,16,04,07,7.80
2016,06,16,04,08,7.80
2016,06,16,04,09,7.80
2016,06,16,04,10,7.80
2016,06,16,04,11,7.80
2016,06,16,04,12,7.80
2016,06,16,04,13,7.80
2016,06,16,04,14,7.70
2016,06,16,04,15,7.70
2016,06,16,04,16,7.70
2016,06,16,04,17,7.70
2016,06,16,04,18,7.70
2016,06,16,04,19,7.70
2016,06,16,04,20,7.60
2016,06,16,04,21,7.60
2016,06,16,04,22,7.60
2016,06,16,04,23,7.60
2016,06,16,04,24,7.60
2016,06,16,04,25,7.60
2016,06,16,04,26,7.60
2016,06,16,04,27,7.60
2016,06,16,04,28,7.60
2016,06,16,04,29,7.70
2016,06,16,04,30,7.70
2016,06,16,04,31,7.70
2016,06,16,04,32,7.70
2016,06,16,04,33,7.70
2016,06,16,04,34,7.70
2016,06,16,04,35,7.70
2016,06,16,04,36,7.70
2016,06,16,04,37,7.70
2016,06,16,04,38,7.70
2016,06,16,04,39,7.70
2016,06,16,04,40,7.70
2016,06,16,04,41,7.60
2016,06,16,04,42,7.60
2016,06,16,04,43,7.60
2016,06,16,04,44,7.60
2016,06,16,04,45,7.60
2016,06,16,04,46,7.60
2016,06,16,04,47,7.60
2016,06,16,04,48,7.60
2016,06,16,04,49,7.60
2016,06,16,04,50,7.60
2016,06,16,04,51,7.60
2016,06,16,04,52,7.60
2016,06,16,04,53,7.60
2016,06,16,04,54,7.60
2016,06,16,04,55,7.60
2016,06,16,04,56,7.60
2016,06,16,04,57,7.50
2016,06,16,04,58,7.50
2016,06,16,04,59,7.50
2016,06,16,05,00,7.50
2016,06,16,05,01,7.50
2016,06,16,05,02,7.50
2016,06,16,05,03,7.50
2016,06,16,05,04,7.50
2016,06,16,05,05,7.50
2016,06,16,05,06,7.50
2016,06,16,05,07,7.50
2016,06,16,05,08,7.60
2016,06,16,05,09,7.60
2016,06,16,05,10,7.60
2016,06,16,05,11,7.60
2016,06,16,05,12,7.50
2016,06,16,05,13,7.50
2016,06,16,05,14,7.50
2016,06,16,05,15,7.50
2016,06,16,05,16,7.50
2016,06,16,05,17,7.40
2016,06,16,05,18,7.40
2016,06,16,05,19,7.40
2016,06,16,05,20,7.40
2016,06,16,05,21,7.40
2016,06,16,05,22,7.40
2016,06,16,05,23,7.30
2016,06,16,05,24,7.30
2016,06,16,05,25,7.30
2016,06,16,05,26,7.30
2016,06,16,05,27,7.30
2016,06,16,05,28,7.30
2016,06,16,05,29,7.30
2016,06,16,05,30,7.30
2016,06,16,05,31,7.30
2016,06,16,05,32,7.30
2016,06,16,05,33,7.30
2016,06,16,05,34,7.30
2016,06,16,05,35,7.20
2016,06,16,05,36,7.20
2016,06,16,05,37,7.20
2016,06,16,05,38,7.20
2016,06,16,05,39,7.20
2016,06,16,05,40,7.10
2016,06,16,05,41,7.10
2016,06,16,05,42,7.10
2016,06,16,05,43,7.10
2016,06,16,05,44,7.00
2016,06,16,05,45,7.00
2016,06,16,05,46,7.00
2016,06,16,05,47,7.00
2016,06,16,05,48,7.00
2016,06,16,05,49,7.00
2016,06,16,05,50,6.90
2016,06,16,05,51,6.90
2016,06,16,05,52,6.90
2016,06,16,05,53,6.90
2016,06,16,05,54,6.90
2016,06,16,05,55,7.00
2016,06,16,05,56,7.00
2016,06,16,05,57,7.00
2016,06,16,05,58,7.10
2016,06,16,05,59,7.10
2016,06,16,06,00,7.10
2016,06,16,06,01,7.10
2016,06,16,06,02,7.10
2016,06,16,06,03,7.20
2016,06,16,06,04,7.20
2016,06,16,06,05,7.20
2016,06,16,06,06,7.20
2016,06,16,06,07,7.20
2016,06,16,06,08,7.20
2016,06,16,06,09,7.20
2016,06,16,06,10,7.20
2016,06,16,06,11,7.20
2016,06,16,06,12,7.20
2016,06,16,06,13,7.20
2016,06,16,06,14,7.20
2016,06,16,06,15,7.20
2016,06,16,06,16,7.20
2016,06,16,06,17,7.30
2016,06,16,06,18,7.30
2016,06,16,06,19,7.30
2016,06,16,06,20,7.30
2016,06,16,06,21,7.40
2016,06,16,06,22,7.40
2016,06,16,06,23,7.40
2016,06,16,06,24,7.50
2016,06,16,06,25,7.50
2016,06,16,06,26,7.60
2016,06,16,06,27,7.60
2016,06,16,06,28,7.60
2016,06,16,06,29,7.60
2016,06,16,06,30,7.60
2016,06,16,06,31,7.70
2016,06,16,06,32,7.70
2016,06,16,06,33,7.70
2016,06,16,06,34,7.70
2016,06,16,06,35,7.80
2016,06,16,06,36,7.80
2016,06,16,06,37,7.80
2016,06,16,06,38,7.90
2016,06,16,06,39,7.90
2016,06,16,06,40,8.00
2016,06,16,06,41,8.00
2016,06,16,06,42,8.10
2016,06,16,06,43,8.10
2016,06,16,06,44,8.20
2016,06,16,06,45,8.20
2016,06,16,06,46,8.30
2016,06,16,06,47,8.30
2016,06,16,06,48,8.30
2016,06,16,06,49,8.40
2016,06,16,06,50,8.40
2016,06,16,06,51,8.40
2016,06,16,06,52,8.50
2016,06,16,06,53,8.60
2016,06,16,06,54,8.60
2016,06,16,06,55,8.60
2016,06,16,06,56,8.70
2016,06,16,06,57,8.70
2016,06,16,06,58,8.80
2016,06,16,06,59,8.80
2016,06,16,07,00,8.90
2016,06,16,07,01,8.90
2016,06,16,07,02,9.00
2016,06,16,07,03,9.00
2016,06,16,07,04,9.10
2016,06,16,07,05,9.20
2016,06,16,07,06,9.20
2016,06,16,07,07,9.20
2016,06,16,07,08,9.30
2016,06,16,07,09,9.30
2016,06,16,07,10,9.30
2016,06,16,07,11,9.30
2016,06,16,07,12,9.40
2016,06,16,07,13,9.50
2016,06,16,07,14,9.50
2016,06,16,07,15,9.60
2016,06,16,07,16,9.60
2016,06,16,07,17,9.60
2016,06,16,07,18,9.70
2016,06,16,07,19,9.70
2016,06,16,07,20,9.80
2016,06,16,07,21,9.80
2016,06,16,07,22,9.80
2016,06,16,07,23,9.90
2016,06,16,07,24,10.00
2016,06,16,07,25,10.00
2016,06,16,07,26,10.10
2016,06,16,07,27,10.10
2016,06,16,07,28,10.10
2016,06,16,07,29,10.20
2016,06,16,07,30,10.20
2016,06,16,07,31,10.20
2016,06,16,07,32,10.20
2016,06,16,07,33,10.30
2016,06,16,07,34,10.40
2016,06,16,07,35,10.40
2016,06,16,07,36,10.50
2016,06,16,07,37,10.60
2016,06,16,07,38,10.60
2016,06,16,07,39,10.70
2016,06,16,07,40,10.80
2016,06,16,07,41,10.80
2016,06,16,07,42,10.90
2016,06,16,07,43,10.90
2016,06,16,07,44,11.00
2016,06,16,07,45,11.00
2016,06,16,07,46,11.10
2016,06,16,07,47,11.20
2016,06,16,07,48,11.20
2016,06,16,07,49,11.30
2016,06,16,07,50,11.30
2016,06,16,07,51,11.30
2016,06,16,07,52,11.40
2016,06,16,07,53,11.40
2016,06,16,07,54,11.40
2016,06,16,07,55,11.40
2016,06,16,07,56,11.40
2016,06,16,07,57,11.50
2016,06,16,07,58,11.50
2016,06,16,07,59,11.60
2016,06,16,08,00,11.60
2016,06,16,08,01,11.70
2016,06,16,08,02,11.70
2016,06,16,08,03,11.70
2016,06,16,08,04,11.70
2016,06,16,08,05,11.70
2016,06,16,08,06,11.80
2016,06,16,08,07,11.80
2016,06,16,08,08,11.90
2016,06,16,08,09,12.00
2016,06,16,08,10,12.00
2016,06,16,08,11,12.10
2016,06,16,08,12,12.10
2016,06,16,08,13,12.20
2016,06,16,08,14,12.20
2016,06,16,08,15,12.20
2016,06,16,08,16,12.20
2016,06,16,08,17,12.20
2016,06,16,08,18,12.20
2016,06,16,08,19,12.20
2016,06,16,08,20,12.20
2016,06,16,08,21,12.20
2016,06,16,08,22,12.20
2016,06,16,08,23,12.30
2016,06,16,08,24,12.30
2016,06,16,08,25,12.30
2016,06,16,08,26,12.30
2016,06,16,08,27,12.20
2016,06,16,08,28,12.10
2016,06,16,08,29,12.10
2016,06,16,08,30,12.10
2016,06,16,08,31,12.10
2016,06,16,08,32,12.10
2016,06,16,08,33,12.10
2016,06,16,08,34,12.10
2016,06,16,08,35,12.10
2016,06,16,08,36,12.20
2016,06,16,08,37,12.30
2016,06,16,08,38,12.40
2016,06,16,08,39,12.50
2016,06,16,08,40,12.60
2016,06,16,08,41,12.70
2016,06,16,08,42,12.80
2016,06,16,08,43,12.90
2016,06,16,08,44,13.00
2016,06,16,08,45,13.10
2016,06,16,08,46,13.20
2016,06,16,08,47,13.30
2016,06,16,08,48,13.30
2016,06,16,08,49,13.30
2016,06,16,08,50,13.30
2016,06,16,08,51,13.20
2016,06,16,08,52,13.10
2016,06,16,08,53,13.10
2016,06,16,08,54,13.10
2016,06,16,08,55,13.10
2016,06,16,08,56,13.10
2016,06,16,08,57,13.10
2016,06,16,08,58,13.00
2016,06,16,08,59,13.00
2016,06,16,09,00,13.00
2016,06,16,09,01,13.00
2016,06,16,09,02,13.00
2016,06,16,09,03,12.90
2016,06,16,09,04,12.90
2016,06,16,09,05,12.90
2016,06,16,09,06,12.90
2016,06,16,09,07,12.90
2016,06,16,09,08,12.80
2016,06,16,09,09,12.70
2016,06,16,09,10,12.70
2016,06,16,09,11,12.70
2016,06,16,09,12,12.60
2016,06,16,09,13,12.60
2016,06,16,09,14,12.60
2016,06,16,09,15,12.60
2016,06,16,09,16,12.60
2016,06,16,09,17,12.60
2016,06,16,09,18,12.70
2016,06,16,09,19,12.70
2016,06,16,09,20,12.70
2016,06,16,09,21,12.70
2016,06,16,09,22,12.70
2016,06,16,09,23,12.80
2016,06,16,09,24,12.90
2016,06,16,09,25,12.90
2016,06,16,09,26,13.00
2016,06,16,09,27,12.90
2016,06,16,09,28,12.90
2016,06,16,09,29,12.80
2016,06,16,09,30,12.80
2016,06,16,09,31,12.80
2016,06,16,09,32,12.70
2016,06,16,09,33,12.70
2016,06,16,09,34,12.70
2016,06,16,09,35,12.70
2016,06,16,09,36,12.70
2016,06,16,09,37,12.70
2016,06,16,09,38,12.80
2016,06,16,09,39,12.90
2016,06,16,09,40,13.00
2016,06,16,09,41,13.10
2016,06,16,09,42,13.10
2016,06,16,09,43,13.10
2016,06,16,09,44,13.10
2016,06,16,09,45,13.10
2016,06,16,09,46,13.20
2016,06,16,09,47,13.20
2016,06,16,09,48,13.10
2016,06,16,09,49,13.10
2016,06,16,09,50,13.10
2016,06,16,09,51,13.00
2016,06,16,09,52,13.00
2016,06,16,09,53,13.00
2016,06,16,09,54,13.00
2016,06,16,09,55,12.90
2016,06,16,09,56,12.90
2016,06,16,09,57,12.90
2016,06,16,09,58,12.90
2016,06,16,09,59,12.90
2016,06,16,10,00,12.90
2016,06,16,10,01,12.90
2016,06,16,10,02,12.90
2016,06,16,10,03,13.00
2016,06,16,10,04,13.00
2016,06,16,10,05,13.10
2016,06,16,10,06,13.10
2016,06,16,10,07,13.20
2016,06,16,10,08,13.20
2016,06,16,10,09,13.30
2016,06,16,10,10,13.30
2016,06,16,10,11,13.30
2016,06,16,10,12,13.30
2016,06,16,10,13,13.30
2016,06,16,10,14,13.30
2016,06,16,10,15,13.30
2016,06,16,10,16,13.30
2016,06,16,10,17,13.40
2016,06,16,10,18,13.40
2016,06,16,10,19,13.50
2016,06,16,10,20,13.60
2016,06,16,10,21,13.60
2016,06,16,10,22,13.70
2016,06,16,10,23,13.80
2016,06,16,10,24,13.80
2016,06,16,10,25,13.80
2016,06,16,10,26,13.80
2016,06,16,10,27,13.80
2016,06,16,10,28,13.80
2016,06,16,10,29,13.90
2016,06,16,10,30,14.00
2016,06,16,10,31,14.10
2016,06,16,10,32,14.20
2016,06,16,10,33,14.20
2016,06,16,10,34,14.20
2016,06,16,10,35,14.20
2016,06,16,10,36,14.20
2016,06,16,10,37,14.10
2016,06,16,10,38,14.10
2016,06,16,10,39,14.00
2016,06,16,10,40,14.00
2016,06,16,10,41,14.00
2016,06,16,10,42,14.00
2016,06,16,10,43,14.10
2016,06,16,10,44,14.00
2016,06,16,10,45,14.00
2016,06,16,10,46,13.90
2016,06,16,10,47,13.80
2016,06,16,10,48,13.80
2016,06,16,10,49,13.70
2016,06,16,10,50,13.70
2016,06,16,10,51,13.70
2016,06,16,10,52,13.80
2016,06,16,10,53,13.90
2016,06,16,10,54,14.00
2016,06,16,10,55,14.00
2016,06,16,10,56,14.10
2016,06,16,10,57,14.10
2016,06,16,10,58,14.00
2016,06,16,10,59,14.00
2016,06,16,11,00,14.00
2016,06,16,11,01,14.00
2016,06,16,11,02,14.00
2016,06,16,11,03,13.90
2016,06,16,11,04,13.90
2016,06,16,11,05,14.00
2016,06,16,11,06,14.10
2016,06,16,11,07,14.10
2016,06,16,11,08,14.20
2016,06,16,11,09,14.20
2016,06,16,11,10,14.30
2016,06,16,11,11,14.40
2016,06,16,11,12,14.40
2016,06,16,11,13,14.40
2016,06,16,11,14,14.40
2016,06,16,11,15,14.30
2016,06,16,11,16,14.30
2016,06,16,11,17,14.20
2016,06,16,11,18,14.10
2016,06,16,11,19,14.10
2016,06,16,11,20,14.00
2016,06,16,11,21,14.00
2016,06,16,11,22,14.00
2016,06,16,11,23,14.00
2016,06,16,11,24,14.00
2016,06,16,11,25,14.10
2016,06,16,11,26,14.10
2016,06,16,11,27,14.20
2016,06,16,11,28,14.30
2016,06,16,11,29,14.40
2016,06,16,11,30,14.50
2016,06,16,11,31,14.60
2016,06,16,11,32,14.70
2016,06,16,11,33,14.80
2016,06,16,11,34,14.70
2016,06,16,11,35,14.60
2016,06,16,11,36,14.50
2016,06,16,11,37,14.50
2016,06,16,11,38,14.40
2016,06,16,11,39,14.40
2016,06,16,11,40,14.30
2016,06,16,11,41,14.30
2016,06,16,11,42,14.30
2016,06,16,11,43,14.30
2016,06,16,11,44,14.40
2016,06,16,11,45,14.50
2016,06,16,11,46,14.70
2016,06,16,11,47,14.80
2016,06,16,11,48,14.80
2016,06,16,11,49,14.80
2016,06,16,11,50,14.80
2016,06,16,11,51,14.70
2016,06,16,11,52,14.70
2016,06,16,11,53,14.70
2016,06,16,11,54,14.80
2016,06,16,11,55,14.80
2016,06,16,11,56,14.70
2016,06,16,11,57,14.70
2016,06,16,11,58,14.70
2016,06,16,11,59,14.70
2016,06,16,12,00,14.80
2016,06,16,12,01,14.90
2016,06,16,12,02,14.90
2016,06,16,12,03,14.80
2016,06,16,12,04,14.70
2016,06,16,12,05,14.70
2016,06,16,12,06,14.70
2016,06,16,12,07,14.70
2016,06,16,12,08,14.70
2016,06,16,12,09,14.80
2016,06,16,12,10,14.80
2016,06,16,12,11,14.80
2016,06,16,12,12,14.80
2016,06,16,12,13,14.90
2016,06,16,12,14,14.90
2016,06,16,12,15,14.90
2016,06,16,12,16,14.90
2016,06,16,12,17,14.90
2016,06,16,12,18,14.80
2016,06,16,12,19,14.80
2016,06,16,12,20,14.90
2016,06,16,12,21,14.90
2016,06,16,12,22,15.00
2016,06,16,12,23,15.10
2016,06,16,12,24,15.10
2016,06,16,12,25,15.10
2016,06,16,12,26,15.00
2016,06,16,12,27,15.00
2016,06,16,12,28,14.90
2016,06,16,12,29,14.90
2016,06,16,12,30,14.80
2016,06,16,12,31,14.80
2016,06,16,12,32,14.80
2016,06,16,12,33,14.80
2016,06,16,12,34,14.80
2016,06,16,12,35,14.80
2016,06,16,12,36,14.90
2016,06,16,12,37,15.00
2016,06,16,12,38,15.00
2016,06,16,12,39,15.00
2016,06,16,12,40,15.00
2016,06,16,12,41,15.00
2016,06,16,12,42,15.00
2016,06,16,12,43,15.00
2016,06,16,12,44,15.10
2016,06,16,12,45,15.20
2016,06,16,12,46,15.20
2016,06,16,12,47,15.20
2016,06,16,12,48,15.20
2016,06,16,12,49,15.20
2016,06,16,12,50,15.20
2016,06,16,12,51,15.30
2016,06,16,12,52,15.30
2016,06,16,12,53,15.30
2016,06,16,12,54,15.20
2016,06,16,12,55,15.20
2016,06,16,12,56,15.30
2016,06,16,12,57,15.20
2016,06,16,12,58,15.20
2016,06,16,12,59,15.20
2016,06,16,13,00,15.10
2016,06,16,13,01,15.10
2016,06,16,13,02,15.10
2016,06,16,13,03,15.10
2016,06,16,13,04,15.00
2016,06,16,13,05,15.00
2016,06,16,13,06,15.00
2016,06,16,13,07,14.90
2016,06,16,13,08,14.80
2016,06,16,13,09,14.80
2016,06,16,13,10,14.80
2016,06,16,13,11,14.90
2016,06,16,13,12,14.90
2016,06,16,13,13,14.90
2016,06,16,13,14,15.00
2016,06,16,13,15,15.10
2016,06,16,13,16,15.10
2016,06,16,13,17,15.10
2016,06,16,13,18,15.20
2016,06,16,13,19,15.20
2016,06,16,13,20,15.10
2016,06,16,13,21,15.10
2016,06,16,13,22,15.00
2016,06,16,13,23,14.90
2016,06,16,13,24,14.80
2016,06,16,13,25,14.70
2016,06,16,13,26,14.60
2016,06,16,13,27,14.50
2016,06,16,13,28,14.50
2016,06,16,13,29,14.50
2016,06,16,13,30,14.50
2016,06,16,13,31,14.50
2016,06,16,13,32,14.50
2016,06,16,13,33,14.50
2016,06,16,13,34,14.50
2016,06,16,13,35,14.50
2016,06,16,13,36,14.60
2016,06,16,13,37,14.60
2016,06,16,13,38,14.60
2016,06,16,13,39,14.70
2016,06,16,13,40,14.80
2016,06,16,13,41,14.80
2016,06,16,13,42,14.80
2016,06,16,13,43,14.90
2016,06,16,13,44,14.90
2016,06,16,13,45,14.90
2016,06,16,13,46,14.90
2016,06,16,13,47,14.90
2016,06,16,13,48,14.80
2016,06,16,13,49,14.70
2016,06,16,13,50,14.70
2016,06,16,13,51,14.70
2016,06,16,13,52,14.60
2016,06,16,13,53,14.60
2016,06,16,13,54,14.60
2016,06,16,13,55,14.60
2016,06,16,13,56,14.60
2016,06,16,13,57,14.60
2016,06,16,13,58,14.60
2016,06,16,13,59,14.60
2016,06,16,14,00,14.60
2016,06,16,14,01,14.60
2016,06,16,14,02,14.60
2016,06,16,14,03,14.70
2016,06,16,14,04,14.80
2016,06,16,14,05,14.80
2016,06,16,14,06,14.70
2016,06,16,14,07,14.70
2016,06,16,14,08,14.70
2016,06,16,14,09,14.70
2016,06,16,14,10,14.70
2016,06,16,14,11,14.70
2016,06,16,14,12,14.70
2016,06,16,14,13,14.70
2016,06,16,14,14,14.70
2016,06,16,14,15,14.70
2016,06,16,14,16,14.70
2016,06,16,14,17,14.70
2016,06,16,14,18,14.70
2016,06,16,14,19,14.70
2016,06,16,14,20,14.70
2016,06,16,14,21,14.70
2016,06,16,14,22,14.70
2016,06,16,14,23,14.70
2016,06,16,14,24,14.70
2016,06,16,14,25,14.70
2016,06,16,14,26,14.80
2016,06,16,14,27,14.80
2016,06,16,14,28,14.80
2016,06,16,14,29,14.80
2016,06,16,14,30,14.80
2016,06,16,14,31,14.70
2016,06,16,14,32,14.60
2016,06,16,14,33,14.60
2016,06,16,14,34,14.60
2016,06,16,14,35,14.60
2016,06,16,14,36,14.60
2016,06,16,14,37,14.60
2016,06,16,14,38,14.70
2016,06,16,14,39,14.80
2016,06,16,14,40,14.80
2016,06,16,14,41,14.90
2016,06,16,14,42,15.00
2016,06,16,14,43,15.20
2016,06,16,14,44,15.30
2016,06,16,14,45,15.40
2016,06,16,14,46,15.50
2016,06,16,14,47,15.60
2016,06,16,14,48,15.60
2016,06,16,14,49,15.70
2016,06,16,14,50,15.70
2016,06,16,14,51,15.80
2016,06,16,14,52,15.80
2016,06,16,14,53,15.80
2016,06,16,14,54,15.90
2016,06,16,14,55,15.90
2016,06,16,14,56,15.90
2016,06,16,14,57,15.90
2016,06,16,14,58,15.80
2016,06,16,14,59,15.90
2016,06,16,15,00,15.90
2016,06,16,15,01,15.90
2016,06,16,15,02,15.90
2016,06,16,15,03,16.00
2016,06,16,15,04,16.00
2016,06,16,15,05,16.10
2016,06,16,15,06,16.30
2016,06,16,15,07,16.40
2016,06,16,15,08,16.40
2016,06,16,15,09,16.40
2016,06,16,15,10,16.40
2016,06,16,15,11,16.40
2016,06,16,15,12,16.40
2016,06,16,15,13,16.40
2016,06,16,15,14,16.40
2016,06,16,15,15,16.30
2016,06,16,15,16,16.30
2016,06,16,15,17,16.30
2016,06,16,15,18,16.30
2016,06,16,15,19,16.40
2016,06,16,15,20,16.40
2016,06,16,15,21,16.40
2016,06,16,15,22,16.50
2016,06,16,15,23,16.50
2016,06,16,15,24,16.60
2016,06,16,15,25,16.70
2016,06,16,15,26,16.70
2016,06,16,15,27,16.80
2016,06,16,15,28,16.80
2016,06,16,15,29,16.80
2016,06,16,15,30,16.80
2016,06,16,15,31,16.70
2016,06,16,15,32,16.50
2016,06,16,15,33,16.40
2016,06,16,15,34,16.30
2016,06,16,15,35,16.30
2016,06,16,15,36,16.20
2016,06,16,15,37,16.20
2016,06,16,15,38,16.20
2016,06,16,15,39,16.20
2016,06,16,15,40,16.20
2016,06,16,15,41,16.20
2016,06,16,15,42,16.20
2016,06,16,15,43,16.20
2016,06,16,15,44,16.20
2016,06,16,15,45,16.10
2016,06,16,15,46,16.10
2016,06,16,15,47,16.10
2016,06,16,15,48,16.10
2016,06,16,15,49,16.10
2016,06,16,15,50,16.10
2016,06,16,15,51,16.10
2016,06,16,15,52,16.10
2016,06,16,15,53,16.10
2016,06,16,15,54,16.00
2016,06,16,15,55,16.00
2016,06,16,15,56,15.90
2016,06,16,15,57,15.90
2016,06,16,15,58,15.90
2016,06,16,15,59,15.80
2016,06,16,16,00,15.80
2016,06,16,16,01,15.80
2016,06,16,16,02,15.80
2016,06,16,16,03,15.80
2016,06,16,16,04,15.80
2016,06,16,16,05,15.80
2016,06,16,16,06,15.80
2016,06,16,16,07,15.90
2016,06,16,16,08,15.90
2016,06,16,16,09,16.10
2016,06,16,16,10,16.20
2016,06,16,16,11,16.30
2016,06,16,16,12,16.40
2016,06,16,16,13,16.50
2016,06,16,16,14,16.50
2016,06,16,16,15,16.50
2016,06,16,16,16,16.50
2016,06,16,16,17,16.50
2016,06,16,16,18,16.40
2016,06,16,16,19,16.40
2016,06,16,16,20,16.50
2016,06,16,16,21,16.40
2016,06,16,16,22,16.40
2016,06,16,16,23,16.40
2016,06,16,16,24,16.30
2016,06,16,16,25,16.30
2016,06,16,16,26,16.30
2016,06,16,16,27,16.30
2016,06,16,16,28,16.30
2016,06,16,16,29,16.30
2016,06,16,16,30,16.30
2016,06,16,16,31,16.30
2016,06,16,16,32,16.30
2016,06,16,16,33,16.40
2016,06,16,16,34,16.40
2016,06,16,16,35,16.50
2016,06,16,16,36,16.50
2016,06,16,16,37,16.60
2016,06,16,16,38,16.70
2016,06,16,16,39,16.70
2016,06,16,16,40,16.70
2016,06,16,16,41,16.70
2016,06,16,16,42,16.70
2016,06,16,16,43,16.70
2016,06,16,16,44,16.80
2016,06,16,16,45,16.80
2016,06,16,16,46,16.80
2016,06,16,16,47,16.80
2016,06,16,16,48,16.80
2016,06,16,16,49,16.80
2016,06,16,16,50,16.80
2016,06,16,16,51,16.80
2016,06,16,16,52,16.80
2016,06,16,16,53,16.80
2016,06,16,16,54,16.90
2016,06,16,16,55,16.90
2016,06,16,16,56,16.90
2016,06,16,16,57,16.90
2016,06,16,16,58,16.90
2016,06,16,16,59,16.90
2016,06,16,17,00,16.80
2016,06,16,17,01,16.80
2016,06,16,17,02,16.70
2016,06,16,17,03,16.60
2016,06,16,17,04,16.60
2016,06,16,17,05,16.50
2016,06,16,17,06,16.40
2016,06,16,17,07,16.40
2016,06,16,17,08,16.40
2016,06,16,17,09,16.40
2016,06,16,17,10,16.40
2016,06,16,17,11,16.30
2016,06,16,17,12,16.30
2016,06,16,17,13,16.30
2016,06,16,17,14,16.30
2016,06,16,17,15,16.20
2016,06,16,17,16,16.20
2016,06,16,17,17,16.20
2016,06,16,17,18,16.20
2016,06,16,17,19,16.10
2016,06,16,17,20,16.00
2016,06,16,17,21,15.90
2016,06,16,17,22,15.90
2016,06,16,17,23,15.80
2016,06,16,17,24,15.80
2016,06,16,17,25,15.80
2016,06,16,17,26,15.70
2016,06,16,17,27,15.70
2016,06,16,17,28,15.70
2016,06,16,17,29,15.70
2016,06,16,17,30,15.60
2016,06,16,17,31,15.60
2016,06,16,17,32,15.60
2016,06,16,17,33,15.60
2016,06,16,17,34,15.60
2016,06,16,17,35,15.60
2016,06,16,17,36,15.60
2016,06,16,17,37,15.60
2016,06,16,17,38,15.60
2016,06,16,17,39,15.50